| time (UTC) | temp C | wind direction | speed KPH | gust KPH | rain 1hr cm | rain 24hr cm | rain mn cm | humidity % | barometer mb |
| 20260506091541 | 11 | 46 | 11.3 | 20.9 | 0.00 | 0.00 | 0.00 | 61 | 1015.1 |
| 20260506090035 | 11 | 38 | 8.0 | 29.0 | 0.00 | 0.00 | 0.00 | 61 | 1015.0 |
| 20260506084537 | 11 | 13 | 11.3 | 20.9 | 0.00 | 0.00 | 0.00 | 61 | 1015.2 |
| 20260506083031 | 11 | 39 | 12.9 | 25.7 | 0.00 | 0.00 | 0.00 | 60 | 1015.3 |
| 20260506081530 | 11 | 58 | 9.7 | 20.9 | 0.00 | 0.00 | 0.00 | 59 | 1015.3 |
| 20260506073024 | 10 | 86 | 11.3 | 19.3 | 0.00 | 0.00 | 0.00 | 62 | 1015.2 |
| 20260506071521 | 10 | 53 | 9.7 | 16.1 | 0.00 | 0.00 | 0.00 | 64 | 1015.3 |
| 20260506061509 | 8 | 81 | 3.2 | 9.7 | 0.00 | 0.00 | 0.00 | 78 | 1015.1 |
| 20260506050103 | 5 | 46 | 4.8 | 9.7 | 0.00 | 0.00 | 0.00 | 89 | 1014.8 |
| 20260506044553 | 4 | 59 | 4.8 | 9.7 | 0.00 | 0.00 | 0.00 | 89 | 1014.8 |
| 20260506043050 | 4 | 48 | 4.8 | 12.9 | 0.00 | 0.00 | 0.00 | 89 | 1014.6 |
| 20260506041545 | 3 | 70 | 3.2 | 11.3 | 0.00 | 0.00 | 0.00 | 87 | 1014.8 |
| 20260506033035 | 0 | 51 | 1.6 | 6.4 | 0.00 | 0.00 | 0.00 | 88 | 1014.6 |
| 20260506031533 | 0 | 58 | 3.2 | 8.0 | 0.00 | 0.00 | 0.00 | 88 | 1014.6 |
| 20260506030131 | 0 | 61 | 4.8 | 6.4 | 0.00 | 0.00 | 0.00 | 88 | 1014.5 |
| 20260506023021 | 0 | 53 | 3.2 | 6.4 | 0.00 | 0.00 | 0.00 | 87 | 1014.4 |
| 20260506021521 | 0 | 60 | 0.0 | 3.2 | 0.00 | 0.00 | 0.00 | 88 | 1014.4 |
| 20260506020017 | 0 | 60 | 0.0 | 6.4 | 0.00 | 0.00 | 0.00 | 87 | 1014.3 |
| 20260506014516 | 0 | 61 | 1.6 | 4.8 | 0.00 | 0.00 | 0.00 | 87 | 1014.2 |
| 20260506013022 | 0 | 60 | 1.6 | 3.2 | 0.00 | 0.00 | 0.00 | 88 | 1014.0 |
| 20260506011513 | 0 | 61 | 1.6 | 6.4 | 0.00 | 0.00 | 0.00 | 88 | 1013.9 |
| 20260506010112 | 0 | 66 | 3.2 | 6.4 | 0.00 | 0.00 | 0.00 | 89 | 1013.7 |
| 20260506004511 | 0 | 93 | 3.2 | 4.8 | 0.00 | 0.00 | 0.00 | 89 | 1013.7 |
| 20260506003009 | 0 | 134 | 0.0 | 3.2 | 0.00 | 0.00 | 0.00 | 89 | 1013.9 |
| 20260506001507 | 0 | 134 | 1.6 | 4.8 | 0.00 | 0.00 | 0.00 | 90 | 1013.9 |
| 20260506000005 | 0 | 144 | 1.6 | 4.8 | 0.00 | 0.00 | 0.00 | 90 | 1013.7 |
| 20260505234504 | 0 | 177 | 0.0 | 3.2 | 0.00 | 0.00 | 0.00 | 90 | 1013.8 |
| 20260505233102 | 0 | 184 | 0.0 | 0.0 | 0.00 | 0.00 | 0.00 | 91 | 1013.9 |
| 20260505231558 | 0 | 190 | 0.0 | 0.0 | 0.00 | 0.00 | 0.00 | 91 | 1014.0 |
| 20260505230105 | 0 | 203 | 0.0 | 0.0 | 0.00 | 0.00 | 0.00 | 91 | 1013.9 |
| 20260505224554 | 1 | 203 | 0.0 | 0.0 | 0.00 | 0.00 | 0.00 | 92 | 1014.0 |
| 20260505223102 | 1 | 203 | 0.0 | 0.0 | 0.00 | 0.00 | 0.00 | 92 | 1013.9 |
| 20260505221550 | 1 | 206 | 0.0 | 0.0 | 0.00 | 0.00 | 0.00 | 92 | 1014.0 |
| 20260505220046 | 1 | 206 | 0.0 | 0.0 | 0.00 | 0.00 | 0.00 | 92 | 1013.8 |
| 20260505214543 | 2 | 206 | 0.0 | 0.0 | 0.00 | 0.00 | 0.00 | 92 | 1013.7 |
| 20260505213052 | 2 | 206 | 0.0 | 0.0 | 0.00 | 0.00 | 0.00 | 93 | 1013.6 |
| 20260505211538 | 2 | 206 | 1.6 | 3.2 | 0.00 | 0.00 | 0.00 | 94 | 1013.5 |
| 20260505210034 | 3 | 206 | 1.6 | 3.2 | 0.00 | 0.00 | 0.00 | 96 | 1013.4 |
| 20260505204531 | 3 | 207 | 0.0 | 0.0 | 0.00 | 0.00 | 0.00 | 96 | 1013.4 |
| 20260505203040 | 4 | 207 | 0.0 | 0.0 | 0.00 | 0.00 | 0.00 | 95 | 1013.3 |
| 20260505201525 | 4 | 207 | 0.0 | 0.0 | 0.00 | 0.00 | 0.00 | 96 | 1013.0 |
| 20260505200031 | 5 | 207 | 0.0 | 0.0 | 0.00 | 0.00 | 0.00 | 96 | 1012.8 |
| 20260505194519 | 5 | 207 | 0.0 | 0.0 | 0.00 | 0.00 | 0.00 | 97 | 1012.7 |
| 20260505193018 | 6 | 207 | 0.0 | 0.0 | 0.00 | 0.00 | 0.00 | 97 | 1012.6 |
| 20260505191516 | 6 | 207 | 0.0 | 3.2 | 0.00 | 0.00 | 0.00 | 97 | 1012.6 |
| 20260505190015 | 7 | 207 | 1.6 | 3.2 | 0.00 | 0.00 | 0.00 | 96 | 1012.4 |
| 20260505184519 | 7 | 207 | 0.0 | 3.2 | 0.00 | 0.00 | 0.00 | 96 | 1012.3 |
| 20260505183013 | 8 | 207 | 1.6 | 4.8 | 0.00 | 0.00 | 0.00 | 96 | 1012.1 |
| 20260505181512 | 8 | 207 | 1.6 | 4.8 | 0.00 | 0.00 | 0.00 | 96 | 1011.9 |
| 20260505180011 | 9 | 207 | 3.2 | 6.4 | 0.00 | 0.00 | 0.00 | 95 | 1011.8 |
| 20260505174515 | 10 | 243 | 3.2 | 6.4 | 0.00 | 0.00 | 0.00 | 94 | 1011.8 |
| 20260505173030 | 10 | 278 | 1.6 | 6.4 | 0.00 | 0.00 | 0.00 | 93 | 1011.7 |
| 20260505171509 | 10 | 229 | 4.8 | 6.4 | 0.00 | 0.00 | 0.00 | 92 | 1011.7 |
| 20260505170013 | 10 | 221 | 3.2 | 8.0 | 0.00 | 0.00 | 0.00 | 92 | 1011.6 |
| 20260505164524 | 10 | 229 | 4.8 | 11.3 | 0.00 | 0.00 | 0.00 | 90 | 1011.6 |
| 20260505163013 | 10 | 236 | 4.8 | 9.7 | 0.00 | 0.00 | 0.00 | 91 | 1011.5 |
| 20260505161508 | 11 | 221 | 4.8 | 12.9 | 0.00 | 0.00 | 0.00 | 89 | 1011.5 |
| 20260505153010 | 11 | 243 | 8.0 | 14.5 | 0.00 | 0.00 | 0.00 | 88 | 1011.6 |
| 20260505151505 | 11 | 238 | 9.7 | 16.1 | 0.00 | 0.00 | 0.00 | 89 | 1011.7 |
| 20260505130104 | 11 | 238 | 8.0 | 14.5 | 0.00 | 0.00 | 0.00 | 91 | 1011.8 |
| 20260505124559 | 11 | 242 | 8.0 | 14.5 | 0.00 | 0.00 | 0.00 | 90 | 1011.7 |
| 20260505123106 | 11 | 232 | 8.0 | 14.5 | 0.00 | 0.00 | 0.00 | 89 | 1011.6 |
| 20260505121556 | 11 | 239 | 8.0 | 14.5 | 0.00 | 0.00 | 0.00 | 89 | 1011.6 |
| 20260505120057 | 11 | 222 | 8.0 | 17.7 | 0.00 | 0.00 | 0.00 | 89 | 1011.4 |
| 20260505114554 | 11 | 225 | 9.7 | 16.1 | 0.00 | 0.00 | 0.00 | 87 | 1011.5 |
| 20260505113058 | 11 | 225 | 8.0 | 14.5 | 0.00 | 0.00 | 0.00 | 87 | 1011.4 |
| 20260505111555 | 11 | 234 | 4.8 | 11.3 | 0.00 | 0.00 | 0.00 | 89 | 1011.4 |
| 20260505101537 | 10 | 236 | 6.4 | 12.9 | 0.00 | 0.00 | 0.00 | 88 | 1011.1 |
| 20260505100042 | 10 | 229 | 8.0 | 16.1 | 0.00 | 0.00 | 0.00 | 90 | 1011.1 |
| 20260505094533 | 10 | 236 | 8.0 | 14.5 | 0.00 | 0.00 | 0.00 | 91 | 1011.1 |
| 20260505093133 | 10 | 244 | 6.4 | 17.7 | 0.00 | 0.00 | 0.00 | 91 | 1011.1 |